Starlink 6125

operational
NORAD ID: 57114 Int'l Des: 2023-090 Owner: SPXS Country: US Constellation: starlink
LEOCIRCULAR

About Starlink 6125

Description loading...

Live Position

Loading 3D Globe...

Upcoming Passes

Altitude History

Altitude vs Time

uPlot chart will show altitude changes over time

Two-Line Element Set

1 57114U 23090P 25303.85972115 .00002092 00000-0 16989-3 0 9992
2 57114 43.0027 260.1041 0001272 269.7353 90.3344 15.02542249130884
Epoch: Oct 30, 2025 • Age: 9 hours

Current Status

Altitude 568.6 km
Velocity 7.58 km/s
Sub-Earth Point -35.73°S, 78.91°E
Launch Date Jun 23, 2023
Age 2.3 years
Type internet

Technical Details

Classification Payload
Mass 305.00 kg
Dry Mass 290.00 kg
Total Mass 305.00 kg
Length 0.20 m
Diameter 2.80 m
Span 9.00 m
Shape Box + pan
Manufacturer SPXS
Bus Type Starlink
Phase Status In Orbit
Owner/State SPXS/US

Large Constellations

Loading constellations...